Regional Weather Roundup
Issued by NWS

Home | Current Version | Previous Version | Graphics & Text | Print | Product List | Glossary On
Versions: 1 2 3 4 5 6 7 8 9 10 11 12 13 14 15 16 17 18 19 20 21 22 23 24 25 26 27 28 29 30 31 32 33 34 35 36 37 38 39 40 41 42 43 44 45 46 47 48 49 50
000
ASUS44 KMEG 032000
RWRTN
TENNESSEE HOURLY STATE WEATHER ROUNDUP
NATIONAL WEATHER SERVICE MEMPHIS TN
300 PM CDT THU SEP 03 2015

TNZ002-004-019-021-049-052-054-088>092-032100-
WEST TENNESSEE

CITY           SKY/WX    TMP DP  RH WIND       PRES   REMARKS
MEMPHIS INTL   MOSUNNY   90  68  48 CALM      29.97F HX  94
NWS MEMPHIS      N/A     91 N/A N/A MISG        N/A
JACKSON        SUNNY     91  68  46 VRB5      29.96F HX  95
DYERSBURG      SUNNY     91  70  49 CALM      29.96F HX  97
UNION CITY     SUNNY     91  68  46 W6        29.95F HX  95
PARIS          SUNNY     90  66  45 SE5       29.97F HX  92
LEXINGTON      MOSUNNY   91  68  46 N3        29.96F HX  95
$$

TNZ008-025-027-028-033-062-065-066-032100-
NORTH MIDDLE TENNESSEE

CITY           SKY/WX    TMP DP  RH WIND       PRES   REMARKS
NASHVILLE      PTSUNNY   95  62  33 VRB3      29.97F HX  96
CLARKSVILLE    PTSUNNY   93  63  36 NE6       29.95F HX  94
COOKEVILLE     MOSUNNY   90  68  48 NE6       29.98F HX  93
CROSSVILLE     SUNNY     87  60  40 N6        30.04F
$$

TNZ061-075-076-078-094-096-097-032100-
SOUTH MIDDLE TENNESSEE

CITY           SKY/WX    TMP DP  RH WIND       PRES   REMARKS
FAYETTEVILLE   SUNNY     86  66  51 CALM      29.98F
TULLAHOMA      SUNNY     88  64  45 CALM      30.00F
WINCHESTER     MOSUNNY   90  68  48 N3        29.98F HX  93
MCMINNVILLE    SUNNY     90  70  51 N3        29.99F HX  95
COLUMBIA       SUNNY     91  68  46 CALM      29.95F HX  95
SHELBYVILLE    SUNNY     93  70  46 NE5       29.98F HX  99
$$

TNZ017-018-042-046-047-032100-
NORTHEAST TENNESSEE

CITY           SKY/WX    TMP DP  RH WIND       PRES   REMARKS
TRI CITIES     MOSUNNY   88  65  46 N7        30.01F HX  90
ELIZABETHTON   PTCLDY    82  64  54 VRB3      30.01F
$$

TNZ012-013-036-069-073-074-032100-
CENTRAL EAST TENNESSEE

CITY           SKY/WX    TMP DP  RH WIND       PRES   REMARKS
KNOXVILLE      MOSUNNY   90  62  39 E7        29.96F HX  90
OAK RIDGE      SUNNY     91  64  40 VRB3      29.99F HX  92
GATLINBURG       N/A     90  59  35 E5        29.97F
$$

TNZ083-085-099-032100-
SOUTHEAST TENNESSEE

CITY           SKY/WX    TMP DP  RH WIND       PRES   REMARKS
CHATTANOOGA    MOSUNNY   91  68  46 N9G18     29.96F HX  95
$$

SKY/WX REPORTED AS FAIR MEANS FEW OR NO CLOUDS BELOW
12 THOUSAND FEET.



USA.gov is the U.S. government's official web portal to all federal, state and local government web resources and services.